DW7857 Weather Reports


Display with metric or nautical units.
time (UTC)temp
F
wind
direction
speed
MPH
gust
MPH
rain 1hr
in
rain 24hr
in
rain mn
in
humidity
%
barometer
mb
20170322220008 35 0 0.0 0.0 0.00 0.74 0.74 80 996.7
20170322215008 36 45 0.0 1.0 0.00 0.74 0.74 79 996.9
20170322214008 36 298 0.0 1.0 0.00 0.74 0.74 79 996.8
20170322213008 36 270 0.0 2.0 0.00 0.74 0.74 80 996.5
20170322212008 37 0 0.0 0.0 0.00 0.74 0.74 79 996.7
20170322211008 37 0 0.0 0.0 0.00 0.74 0.74 78 996.2
20170322210008 38 0 0.0 0.0 0.00 0.74 0.74 78 996.2
20170322205008 38 150 1.0 3.0 0.00 0.74 0.74 79 996.0
20170322204008 39 179 3.0 4.0 0.00 0.74 0.74 80 996.0
20170322203009 38 166 1.0 2.0 0.00 0.74 0.74 79 996.1
20170322202008 38 0 0.0 0.0 0.00 0.74 0.74 76 996.0
20170322201008 38 0 0.0 0.0 0.00 0.74 0.74 75 995.6
20170322200008 39 45 0.0 2.0 0.00 0.74 0.74 74 995.4
20170322195008 40 0 0.0 0.0 0.00 0.74 0.74 74 995.2
20170322194008 40 0 0.0 0.0 0.00 0.74 0.74 75 995.0
20170322193008 40 0 0.0 0.0 0.00 0.78 0.74 74 995.0
20170322192008 40 0 0.0 0.0 0.00 0.78 0.74 72 995.1
20170322191009 41 0 0.0 0.0 0.00 0.78 0.74 72 994.9
20170322190009 41 181 0.0 2.0 0.00 0.78 0.74 71 994.9
20170322185009 42 255 0.0 1.0 0.00 0.78 0.74 70 994.7
20170322184009 43 0 0.0 0.0 0.00 0.78 0.74 68 994.3
20170322183009 44 135 0.0 2.0 0.00 0.78 0.74 67 994.4
20170322182010 44 117 2.0 3.0 0.00 0.78 0.74 65 994.0
20170322181009 45 161 3.0 6.0 0.00 0.78 0.74 64 993.7
20170322180009 46 158 4.0 6.0 0.00 0.78 0.74 60 994.0
20170322175009 47 175 5.0 7.0 0.00 0.78 0.74 57 993.7
20170322174009 49 167 5.0 8.0 0.00 0.78 0.74 57 993.6
20170322173009 46 167 4.0 7.0 0.00 0.78 0.74 60 993.5
20170322172008 47 175 6.0 8.0 0.00 0.78 0.74 58 993.4
20170322171009 50 176 7.0 10.0 0.00 0.78 0.74 52 993.0
20170322170009 53 181 5.0 11.0 0.00 0.78 0.74 50 992.9
20170322165008 53 175 7.0 15.0 0.00 0.78 0.74 52 992.6
20170322164009 52 148 5.0 8.0 0.01 0.78 0.74 54 992.7
20170322163009 50 194 4.0 9.0 0.01 0.78 0.74 55 992.5
20170322162009 49 167 4.0 6.0 0.01 0.78 0.74 62 992.4
20170322161009 48 183 5.0 11.0 0.01 0.79 0.74 61 992.4
20170322160009 48 277 3.0 4.0 0.01 0.83 0.74 65 992.3
20170322155009 46 271 3.0 7.0 0.01 0.83 0.74 65 992.4
20170322154009 47 238 3.0 6.0 0.00 0.81 0.73 63 992.3
20170322153009 47 186 3.0 6.0 0.00 0.81 0.73 60 992.4
20170322152008 48 151 4.0 6.0 0.00 0.81 0.73 59 992.4
20170322151009 48 151 4.0 8.0 0.00 0.81 0.73 60 992.1
20170322150009 48 157 4.0 6.0 0.00 0.81 0.73 60 992.3
20170322145009 49 168 5.0 8.0 0.01 0.81 0.73 54 992.2
20170322144009 54 143 3.0 4.0 0.01 0.81 0.73 53 992.0
20170322143009 54 128 3.0 4.0 0.01 0.81 0.73 57 991.9
20170322142009 52 148 3.0 4.0 0.01 0.81 0.73 61 991.9
20170322141009 50 158 3.0 4.0 0.01 0.81 0.73 70 992.1
20170322140009 45 223 5.0 9.0 0.01 0.81 0.73 70 991.8
20170322135008 46 304 4.0 7.0 0.00 0.81 0.72 62 991.9
20170322134009 47 286 5.0 6.0 0.00 0.81 0.72 61 991.8
20170322133009 47 282 4.0 6.0 0.00 0.81 0.72 65 991.6
20170322132009 45 295 5.0 8.0 0.00 0.81 0.72 71 991.6
20170322131009 45 261 5.0 8.0 0.01 0.83 0.72 68 991.7
20170322130009 48 230 7.0 10.0 0.01 0.84 0.72 55 991.5
20170322125009 51 193 10.0 14.0 0.01 0.84 0.72 55 991.2
20170322124009 52 175 8.0 14.0 0.01 0.84 0.72 56 991.0
20170322123008 52 202 8.0 15.0 0.01 0.84 0.72 52 990.8
20170322122008 52 174 9.0 13.0 0.01 0.84 0.72 56 991.0
20170322121008 53 179 7.0 12.0 0.00 0.83 0.71 53 990.6
20170322120009 50 210 5.0 8.0 0.00 0.83 0.71 60 990.7
20170322115009 51 178 8.0 10.0 0.00 0.83 0.71 54 990.4
20170322114008 52 108 5.0 10.0 0.00 0.83 0.71 54 990.2
20170322113008 52 184 5.0 10.0 0.00 0.83 0.71 54 990.2
20170322112009 50 161 5.0 8.0 0.00 0.83 0.71 60 989.8
20170322111008 52 167 4.0 5.0 0.00 0.83 0.71 60 990.2
20170322110008 51 139 3.0 4.0 0.00 0.83 0.71 62 989.9
20170322105008 49 163 2.0 4.0 0.01 0.83 0.71 63 989.9
20170322104008 49 216 2.0 3.0 0.01 0.83 0.71 67 989.9
20170322103008 46 272 2.0 3.0 0.01 0.83 0.71 72 989.5
20170322102009 44 242 4.0 5.0 0.01 0.83 0.71 79 989.5
20170322101008 43 283 4.0 7.0 0.01 0.83 0.71 80 989.4
20170322100008 44 209 5.0 9.0 0.02 0.83 0.71 80 989.5
20170322095008 44 198 3.0 6.0 0.01 0.83 0.70 82 989.3
20170322094008 44 170 3.0 5.0 0.01 0.83 0.70 84 989.0
20170322093008 44 199 3.0 5.0 0.01 0.83 0.70 85 989.1
20170322092008 43 173 3.0 4.0 0.01 0.83 0.70 85 989.2
20170322091008 43 151 3.0 6.0 0.01 0.83 0.70 85 988.8
20170322090008 43 151 2.0 4.0 0.00 0.81 0.69 86 988.7
20170322085008 43 176 3.0 4.0 0.00 0.81 0.69 85 988.6
20170322084009 43 171 3.0 4.0 0.00 0.81 0.69 85 988.3
20170322083009 43 103 1.0 2.0 0.00 0.81 0.69 86 988.2
20170322082008 42 158 1.0 2.0 0.00 0.81 0.69 85 988.1
20170322081008 42 172 1.0 2.0 0.00 0.81 0.69 85 987.9
20170322080008 42 156 0.0 2.0 0.01 0.81 0.69 86 987.5
20170322075008 42 175 2.0 2.0 0.01 0.81 0.69 85 987.8
20170322074008 42 168 2.0 3.0 0.01 0.81 0.69 85 987.5
20170322073008 42 173 2.0 3.0 0.01 0.81 0.69 85 987.2
20170322072009 42 172 3.0 3.0 0.02 0.81 0.69 85 987.4
20170322071008 42 185 2.0 3.0 0.02 0.81 0.69 85 987.0
20170322070008 42 160 3.0 3.0 0.01 0.80 0.67 85 987.0
20170322065008 42 159 2.0 3.0 0.01 0.80 0.67 85 987.0
20170322064008 41 142 2.0 3.0 0.01 0.80 0.67 85 986.8
20170322063008 41 191 2.0 4.0 0.01 0.80 0.67 85 986.6
20170322062008 41 150 3.0 4.0 0.00 0.79 0.66 85 986.8
20170322061008 41 179 2.0 3.0 0.00 0.79 0.66 85 986.6
20170322060008 41 209 2.0 4.0 0.00 0.79 0.66 85 986.6
20170322055008 41 144 1.0 2.0 0.00 0.79 0.66 85 986.5
20170322054008 41 136 1.0 2.0 0.00 0.79 0.66 84 986.2
20170322053008 41 129 2.0 3.0 0.00 0.79 0.66 84 986.3
20170322052008 41 41 1.0 2.0 0.01 0.79 0.66 84 986.1
20170322051008 41 146 3.0 6.0 0.02 0.79 0.66 84 986.2
20170322050008 41 116 3.0 5.0 0.05 0.79 0.66 84 986.5
20170322045008 41 171 2.0 3.0 0.07 0.79 0.66 84 986.4
20170322044008 41 95 1.0 2.0 0.09 0.79 0.66 84 986.3
20170322043008 42 184 3.0 4.0 0.12 0.79 0.66 84 986.4
20170322042008 42 189 4.0 5.0 0.13 0.78 0.65 84 986.5
20170322041008 42 201 5.0 8.0 0.15 0.77 0.64 84 986.5
20170322040008 42 191 5.0 8.0 0.17 0.74 0.61 83 986.4
20170322035008 42 157 9.0 15.0 0.18 0.72 0.59 83 986.6
20170322034008 42 161 12.0 21.0 0.27 0.70 0.57 83 986.7
20170322033008 42 168 15.0 26.0 0.30 0.67 0.54 84 986.8
20170322032008 42 181 11.0 15.0 0.27 0.64 0.51 83 986.9
20170322031008 42 175 11.0 18.0 0.28 0.61 0.48 83 987.1
20170322030008 41 169 14.0 17.0 0.27 0.58 0.45 82 987.4
20170322025009 41 166 13.0 17.0 0.24 0.53 0.40 80 987.8
20170322024009 44 183 12.0 17.0 0.15 0.43 0.30 80 987.6
20170322023009 44 188 15.0 21.0 0.13 0.38 0.25 80 987.4
20170322022009 44 176 16.0 23.0 0.14 0.37 0.24 80 987.5
20170322021009 44 171 15.0 28.0 0.13 0.33 0.20 76 987.5
20170322020009 44 159 16.0 29.0 0.12 0.31 0.18 75 987.9
20170322015009 45 172 15.0 21.0 0.12 0.30 0.17 75 987.9
20170322014009 44 200 15.0 21.0 0.11 0.27 0.14 75 988.1
20170322013009 45 170 14.0 17.0 0.11 0.25 0.12 75 988.4
20170322012009 45 152 17.0 26.0 0.09 0.22 0.09 74 988.4
20170322011009 45 204 13.0 21.0 0.07 0.20 0.07 75 988.5
20170322010009 45 173 14.0 19.0 0.06 0.19 0.06 74 988.8
20170322004013 45 169 15.0 24.0 0.04 0.17 0.04 75 989.4
20170322003013 46 133 13.0 16.0 0.00 0.13 0.00 67 989.6
20170322002014 47 177 14.0 20.0 0.00 0.13 0.00 64 989.4
20170322001013 47 203 15.0 22.0 0.00 0.13 0.00 63 989.7
20170322000016 47 202 14.0 27.0 0.00 0.13 0.00 63 989.9
20170321235013 47 188 15.0 23.0 0.00 0.13 0.13 63 990.3
20170321234014 47 140 15.0 18.0 0.00 0.13 0.13 63 990.7
20170321233013 47 199 18.0 25.0 0.00 0.13 0.13 62 990.8
20170321232013 47 183 15.0 18.0 0.00 0.13 0.13 62 990.8
20170321231013 47 162 15.0 21.0 0.00 0.13 0.13 62 991.4
20170321230009 47 170 17.0 22.0 0.00 0.13 0.13 61 991.3
20170321225008 47 168 17.0 23.0 0.00 0.13 0.13 61 991.6
20170321224008 47 199 17.0 22.0 0.00 0.13 0.13 61 991.6
20170321223008 47 205 13.0 21.0 0.00 0.13 0.13 61 991.4
20170321222009 47 166 20.0 25.0 0.00 0.13 0.13 61 991.9